Nashua, NH

2:26 AM EDT on October 18, 2017 (GMT -0400)
Boire

Weather History for KASH - March, 2014

Change the Weather History Date:

Sunday, March 2, 2014

  Actual Average Record
Temperature  
Mean Temperature 31 °F -  
Max Temperature 36 °F 38 °F 64 °F (1991)
Min Temperature 25 °F 18 °F -8 °F (1994)
Degree Days  
Heating Degree Days 34    
Moisture  
Dew Point 18 °F    
Average Humidity 57    
Maximum Humidity 79    
Minimum Humidity 50    
Precipitation  
Precipitation 0.00 in - - ()
Sea Level Pressure  
Sea Level Pressure 30.78 in    
Wind  
Wind Speed 3 mph (NNW)    
Max Wind Speed 12 mph    
Max Gust Speed -    
Visibility 10 miles    
Events      
Averages and records for this station are not official NWS values.
T = Trace of Precipitation, MM = Missing Value Source: NWS Daily Summary

Daily Weather History Graph

Daily Weather History Graph

Search for Another Location

Airport or City:

Trip Planner

Search our weather history database for the weather conditions in past years. The results will help you decide how hot, cold, wet, or windy it might be!

Date:

Astronomy

Mar. 02, 2014 Rise Set
Actual Time 6:20 AM EST 5:36 PM EST
Civil Twilight 5:51 AM EST 6:05 PM EST
Nautical Twilight 5:19 AM EST 6:37 PM EST
Astronomical Twilight 4:46 AM EST 7:10 PM EST
Moon 6:46 AM EST (3/2) 7:33 PM EST (3/2)
Length of Visible Light 12h 13m
Length of Day
11h 16m
Waxing Crescent, 3% of the Moon is Illuminated
Mar 2
Waxing Crescent
Mar 8
First Quarter
Mar 16
Full
Mar 23
Last Quarter
Mar 30
New

Hourly Weather History & Observations

Time (EST) Temp. Windchill Dew Point Humidity Pressure Visibility Wind Dir Wind Speed Gust Speed Precip Events Conditions
12:51 AM 31.1 °F - 16.2 °F 54% 30.82 in 10.0 mi Calm Calm - N/A   Overcast
1:51 AM 29.1 °F - 18.1 °F 64% 30.81 in 10.0 mi Calm Calm - N/A   Overcast
2:51 AM 31.1 °F - 15.1 °F 52% 30.79 in 10.0 mi Calm Calm - N/A   Overcast
3:51 AM 32.0 °F - 15.1 °F 50% 30.78 in 10.0 mi Calm Calm - N/A   Mostly Cloudy
4:51 AM 32.0 °F - 15.1 °F 50% 30.79 in 10.0 mi Calm Calm - N/A   Clear
5:51 AM 31.1 °F 23.7 °F 22.1 °F 69% 30.79 in 10.0 mi WSW 8.1 mph - 0.00 in   Partly Cloudy
6:51 AM 30.0 °F 26.5 °F 24.1 °F 79% 30.80 in 10.0 mi Variable 3.5 mph - 0.00 in   Partly Cloudy
7:51 AM 31.1 °F - 23.0 °F 72% 30.80 in 10.0 mi Calm Calm - N/A   Overcast
8:51 AM 32.0 °F - 23.0 °F 69% 30.82 in 10.0 mi Calm Calm - N/A   Overcast
9:51 AM 34.0 °F - 22.1 °F 62% 30.82 in 10.0 mi Calm Calm - N/A   Mostly Cloudy
10:51 AM 34.9 °F 29.0 °F 22.1 °F 60% 30.81 in 10.0 mi NW 6.9 mph - N/A   Overcast
11:51 AM 36.0 °F 28.5 °F 21.0 °F 55% 30.79 in 10.0 mi NNW 10.4 mph - N/A   Overcast
12:51 PM 36.0 °F 28.0 °F 21.0 °F 55% 30.75 in 10.0 mi NW 11.5 mph - N/A   Mostly Cloudy
1:51 PM 36.0 °F 29.0 °F 20.1 °F 53% 30.74 in 10.0 mi NNW 9.2 mph - N/A   Mostly Cloudy
2:51 PM 36.0 °F 30.3 °F 19.0 °F 50% 30.74 in 10.0 mi North 6.9 mph - N/A   Mostly Cloudy
3:51 PM 36.0 °F 31.1 °F 19.0 °F 50% 30.74 in 10.0 mi NNW 5.8 mph - N/A   Overcast
4:51 PM 34.0 °F 27.2 °F 18.1 °F 52% 30.75 in 10.0 mi North 8.1 mph - N/A   Overcast
5:51 PM 31.1 °F 24.5 °F 16.2 °F 54% 30.77 in 10.0 mi North 6.9 mph - N/A   Mostly Cloudy
6:51 PM 30.0 °F - 14.0 °F 51% 30.78 in 10.0 mi Calm Calm - N/A   Overcast
7:51 PM 30.0 °F - 15.1 °F 54% 30.79 in 10.0 mi Calm Calm - N/A   Overcast
8:51 PM 29.1 °F - 14.0 °F 53% 30.79 in 10.0 mi Calm Calm - N/A   Overcast
9:51 PM 27.1 °F 20.7 °F 12.0 °F 53% 30.78 in 10.0 mi NNE 5.8 mph - N/A   Overcast
10:51 PM 26.1 °F 17.6 °F 11.1 °F 53% 30.79 in 10.0 mi North 8.1 mph - N/A   Overcast
11:51 PM 25.2 °F 17.3 °F 10.0 °F 53% 30.78 in 10.0 mi North 6.9 mph - N/A   Overcast